Creek Data

    Home     View Charts     View Raw Data     Messages

ID Distance Battery Voltage Battery Current Internal Temp Internal Humidity External Temp Solar Input rssi snr Time Stamp Record
32159 13.9 3.86 0 49 34 45 5.1 -78 8 02/12/2025 10:30 AM 13827
32158 14.0 3.83 0 48 34 47 5.1 -77 7 02/12/2025 10:15 AM 13826
32157 13.9 3.83 0 46 34 44 5.1 -76 7 02/12/2025 10:00 AM 13825
32156 13.9 3.83 0 45 34 44 5.1 -78 8 02/12/2025 09:45 AM 13824
32155 13.9 3.83 0 44 34 42 5.1 -77 8 02/12/2025 09:30 AM 13823
32154 13.8 4.08 0 41 35 41 5.1 -78 9 02/12/2025 09:15 AM 13822
32153 13.8 3.83 0 40 34 40 5.1 -79 8 02/12/2025 09:00 AM 13821
32152 13.8 3.83 0 39 34 40 5.1 -77 8 02/12/2025 08:45 AM 13820
32151 13.8 3.84 0 38 34 40 5.1 -77 8 02/12/2025 08:30 AM 13819
32150 13.8 3.83 0 37 35 40 5.1 -77 8 02/12/2025 08:15 AM 13818
32149 13.8 4.06 7 35 35 37 5.1 -76 9 02/12/2025 08:00 AM 13817
32148 13.8 3.87 6 34 35 37 5.1 -80 7 02/12/2025 07:45 AM 13816
32147 13.8 3.92 7 33 36 34 4.5 -80 8 02/12/2025 07:30 AM 13815
32146 13.8 3.76 5 33 36 34 4.5 -79 8 02/12/2025 07:15 AM 13814
32145 13.8 3.69 -9 32 36 35 4.5 -81 8 02/12/2025 07:00 AM 13813
32144 13.7 3.71 -5 32 36 35 1 -79 8 02/12/2025 06:45 AM 13812
32143 13.8 3.72 -5 32 36 34 0.1 -79 8 02/12/2025 06:30 AM 13811
32142 13.7 3.73 -5 33 36 35 0 -79 9 02/12/2025 06:15 AM 13810
32141 13.7 3.71 -5 33 36 35 0 -79 9 02/12/2025 06:00 AM 13809
32140 13.7 3.72 -5 33 36 35 0.1 -80 8 02/12/2025 05:45 AM 13808
32139 13.7 3.68 -5 33 36 35 0 -79 8 02/12/2025 05:30 AM 13807
32138 13.7 3.66 -5 33 36 35 0 -79 9 02/12/2025 05:15 AM 13806
32137 13.7 3.65 -5 33 36 35 0 -81 9 02/12/2025 05:00 AM 13805
32136 13.7 3.70 -5 33 36 36 0 -80 8 02/12/2025 04:45 AM 13804
32135 13.7 3.85 -5 33 36 35 0 -81 8 02/12/2025 04:30 AM 13803